Location: Ernez
(36.4595°N, 29.8755°E)
Time: 09:45:06
(UTC+00:00)

Okean 1 Rocket - Pass Details

Date: 13 November 2025
Orbit: 599 x 628 km, 82.5° (Epoch: 04 December)

Event Time Altitude Azimuth Distance (km) Brightness Sun altitude
Rises 16:39:36 0° 174° (S) 2,895 6.5 -21.5°
Reaches altitude 10° 16:41:51 10° 170° (S) 1,990 5.6 -21.9°
Enters shadow 16:44:01 27° 158° (SSE) 1,194 4.3 -22.3°
